| time (UTC) | temp C | wind direction | speed KPH | gust KPH | rain 1hr cm | rain 24hr cm | rain mn cm | humidity % | barometer mb |
| 20260903154512 | 22 | 238 | 0.0 | 0.0 | 0.00 | 2.49 | 0.10 | 1 | 1013.0 |
| 20260903153007 | 22 | 186 | 0.0 | 0.0 | 0.00 | 2.62 | 0.10 | 1 | 1013.1 |
| 20260903150013 | 22 | 183 | 0.0 | 0.0 | 0.00 | 2.62 | 0.10 | 1 | 1013.0 |
| 20260903144516 | 21 | 162 | 0.0 | 0.0 | 0.00 | 2.62 | 0.10 | 1 | 1012.9 |
| 20260903143004 | 21 | 230 | 0.0 | 0.0 | 0.00 | 4.22 | 0.10 | 1 | 1013.0 |
| 20260903140002 | 21 | 183 | 0.0 | 1.6 | 0.00 | 4.22 | 0.10 | 1 | 1013.1 |
| 20260903134603 | 21 | 194 | 0.0 | 0.0 | 0.00 | 4.22 | 0.10 | 1 | 1012.9 |
| 20260903133053 | 21 | 215 | 0.0 | 0.0 | 0.00 | 4.22 | 0.10 | 1 | 1012.8 |
| 20260903130042 | 20 | 228 | 0.0 | 0.0 | 0.00 | 4.22 | 0.10 | 1 | 1013.0 |
| 20260903124538 | 20 | 228 | 0.0 | 0.0 | 0.00 | 4.22 | 0.10 | 1 | 1013.0 |
| 20260903123034 | 20 | 228 | 0.0 | 0.0 | 0.00 | 4.22 | 0.10 | 1 | 1013.0 |
| 20260903120033 | 19 | 228 | 0.0 | 0.0 | 0.00 | 4.22 | 0.10 | 1 | 1012.6 |
| 20260903114528 | 18 | 227 | 0.0 | 0.0 | 0.00 | 4.22 | 0.10 | 1 | 1012.6 |
| 20260903113023 | 18 | 227 | 0.0 | 0.0 | 0.00 | 4.22 | 0.10 | 1 | 1012.6 |
| 20260903110058 | 18 | 227 | 0.0 | 0.0 | 0.00 | 4.22 | 0.10 | 1 | 1012.3 |
| 20260903104613 | 18 | 227 | 0.0 | 0.0 | 0.00 | 4.22 | 0.10 | 1 | 1012.5 |
| 20260903103102 | 18 | 227 | 0.0 | 0.0 | 0.03 | 4.22 | 0.10 | 1 | 1012.4 |
| 20260903101652 | 18 | 227 | 0.0 | 0.0 | 0.05 | 4.22 | 0.10 | 1 | 1012.5 |
| 20260903100047 | 18 | 227 | 0.0 | 0.0 | 0.05 | 4.22 | 0.10 | 1 | 1012.4 |
| 20260903094546 | 18 | 227 | 0.0 | 0.0 | 0.05 | 4.22 | 0.10 | 1 | 1012.5 |
| 20260903093047 | 18 | 227 | 0.0 | 0.0 | 0.05 | 4.22 | 0.10 | 1 | 1012.7 |
| 20260903091634 | 18 | 227 | 0.0 | 0.0 | 0.00 | 4.17 | 0.05 | 1 | 1012.7 |
| 20260903090038 | 18 | 227 | 0.0 | 0.0 | 0.00 | 4.17 | 0.05 | 1 | 1012.7 |
| 20260903084543 | 18 | 227 | 0.0 | 0.0 | 0.00 | 4.17 | 0.05 | 1 | 1012.5 |
| 20260903083030 | 18 | 227 | 0.0 | 0.0 | 0.00 | 4.17 | 0.05 | 1 | 1012.4 |
| 20260903081635 | 18 | 227 | 0.0 | 0.0 | 0.00 | 4.17 | 0.05 | 1 | 1012.7 |
| 20260903080015 | 18 | 227 | 0.0 | 0.0 | 0.00 | 4.17 | 0.05 | 1 | 1012.6 |
| 20260903074511 | 18 | 227 | 0.0 | 0.0 | 0.00 | 4.17 | 0.05 | 1 | 1012.5 |
| 20260903073007 | 18 | 227 | 0.0 | 0.0 | 0.00 | 4.19 | 0.05 | 1 | 1012.5 |
| 20260903071603 | 18 | 227 | 0.0 | 0.0 | 0.00 | 4.19 | 0.05 | 1 | 1012.7 |
| 20260903070056 | 18 | 227 | 0.0 | 0.0 | 0.00 | 4.19 | 0.05 | 1 | 1012.5 |
| 20260903064554 | 18 | 227 | 0.0 | 0.0 | 0.00 | 4.19 | 0.05 | 1 | 1012.4 |
| 20260903063052 | 18 | 181 | 0.0 | 0.0 | 0.00 | 4.19 | 0.05 | 1 | 1012.6 |
| 20260903061544 | 18 | 279 | 0.0 | 0.0 | 0.00 | 4.19 | 0.05 | 1 | 1013.1 |
| 20260903060043 | 19 | 317 | 0.0 | 0.0 | 0.03 | 4.19 | 0.05 | 1 | 1013.2 |
| 20260903054537 | 19 | 256 | 0.0 | 0.0 | 0.05 | 4.19 | 0.05 | 1 | 1013.1 |
| 20260903053036 | 19 | 256 | 0.0 | 0.0 | 0.10 | 4.19 | 0.05 | 1 | 1012.9 |
| 20260903051528 | 19 | 256 | 0.0 | 0.0 | 0.23 | 4.19 | 0.05 | 1 | 1013.1 |
| 20260903050038 | 19 | 192 | 0.0 | 0.0 | 0.48 | 4.17 | 0.03 | 1 | 1013.0 |
| 20260903044520 | 20 | 197 | 0.0 | 0.0 | 0.48 | 4.14 | 0.00 | 1 | 1012.9 |
| 20260903043016 | 20 | 178 | 0.0 | 0.0 | 0.48 | 4.09 | 4.09 | 1 | 1014.1 |
| 20260903041519 | 20 | 188 | 0.0 | 0.0 | 0.43 | 3.96 | 3.96 | 1 | 1015.2 |
| 20260903040018 | 20 | 12 | 0.0 | 0.0 | 0.30 | 3.78 | 3.78 | 1 | 1016.1 |
| 20260903034512 | 20 | 197 | 0.0 | 0.0 | 0.33 | 3.66 | 3.66 | 1 | 1013.2 |
| 20260903033007 | 20 | 197 | 0.0 | 0.0 | 0.46 | 3.63 | 3.63 | 1 | 1013.4 |
| 20260903031503 | 20 | 197 | 0.0 | 0.0 | 0.89 | 3.53 | 3.53 | 1 | 1013.7 |
| 20260903030119 | 20 | 197 | 0.0 | 0.0 | 1.60 | 3.48 | 3.48 | 1 | 1014.4 |
| 20260903024552 | 20 | 197 | 0.0 | 0.0 | 1.50 | 3.38 | 3.38 | 1 | 1015.5 |
| 20260903023048 | 20 | 196 | 0.0 | 1.6 | 1.37 | 3.20 | 3.20 | 1 | 1015.1 |
| 20260903021546 | 20 | 9 | 0.0 | 22.5 | 1.07 | 2.84 | 2.84 | 1 | 1015.3 |
| 20260903020100 | 21 | 27 | 8.0 | 29.0 | 0.10 | 1.91 | 1.91 | 1 | 1016.5 |
| 20260903014540 | 21 | 171 | 0.0 | 0.0 | 0.08 | 1.88 | 1.88 | 1 | 1014.2 |
| 20260903013033 | 21 | 219 | 0.0 | 0.0 | 0.05 | 1.85 | 1.85 | 1 | 1014.5 |
| 20260903011529 | 21 | 219 | 0.0 | 0.0 | 0.00 | 1.80 | 1.80 | 1 | 1014.6 |
| 20260903010026 | 21 | 169 | 0.0 | 4.8 | 0.00 | 1.80 | 1.80 | 1 | 1013.9 |
| 20260903004523 | 21 | 141 | 0.0 | 0.0 | 0.00 | 1.80 | 1.80 | 1 | 1013.9 |
| 20260903003017 | 21 | 154 | 0.0 | 0.0 | 0.00 | 1.80 | 1.80 | 1 | 1013.9 |
| 20260903001512 | 21 | 234 | 0.0 | 0.0 | 0.00 | 1.80 | 1.80 | 1 | 1013.8 |
| 20260903000010 | 21 | 197 | 0.0 | 0.0 | 0.00 | 1.80 | 1.80 | 1 | 1013.8 |
| 20260902234505 | 21 | 232 | 0.0 | 0.0 | 0.00 | 1.80 | 1.80 | 1 | 1014.0 |
| 20260902233002 | 21 | 189 | 0.0 | 0.0 | 0.00 | 1.80 | 1.80 | 1 | 1014.1 |
| 20260902231558 | 21 | 158 | 0.0 | 0.0 | 0.00 | 1.80 | 1.80 | 1 | 1013.9 |
| 20260902230010 | 21 | 163 | 0.0 | 0.0 | 0.00 | 1.80 | 1.80 | 1 | 1013.7 |
| 20260902224508 | 21 | 209 | 0.0 | 0.0 | 0.00 | 1.80 | 1.80 | 1 | 1013.5 |
| 20260902223002 | 21 | 183 | 0.0 | 0.0 | 0.00 | 1.80 | 1.80 | 1 | 1013.6 |
| 20260902221612 | 21 | 184 | 0.0 | 0.0 | 0.00 | 1.80 | 1.80 | 1 | 1013.9 |
| 20260902220056 | 21 | 177 | 0.0 | 0.0 | 0.00 | 1.80 | 1.80 | 1 | 1014.1 |
| 20260902214544 | 21 | 162 | 0.0 | 0.0 | 0.00 | 1.80 | 1.80 | 1 | 1014.5 |
| 20260902213039 | 21 | 162 | 0.0 | 0.0 | 0.00 | 1.80 | 1.80 | 1 | 1014.5 |
| 20260902211535 | 21 | 177 | 0.0 | 0.0 | 0.00 | 1.80 | 1.80 | 1 | 1014.4 |
| 20260902210030 | 21 | 174 | 0.0 | 0.0 | 0.00 | 1.80 | 1.80 | 1 | 1014.5 |
| 20260902204523 | 21 | 142 | 0.0 | 0.0 | 0.00 | 1.80 | 1.80 | 1 | 1014.4 |
| 20260902203020 | 21 | 65 | 0.0 | 0.0 | 0.00 | 1.80 | 1.80 | 1 | 1014.2 |
| 20260902201517 | 21 | 105 | 0.0 | 0.0 | 0.00 | 1.80 | 1.80 | 1 | 1014.4 |
| 20260902200021 | 21 | 207 | 0.0 | 0.0 | 0.00 | 1.80 | 1.80 | 1 | 1014.8 |
| 20260902194531 | 21 | 183 | 0.0 | 0.0 | 0.00 | 1.80 | 1.80 | 1 | 1015.1 |
| 20260902193021 | 21 | 165 | 0.0 | 0.0 | 0.00 | 1.80 | 1.80 | 1 | 1015.2 |
| 20260902191521 | 21 | 196 | 0.0 | 0.0 | 0.00 | 1.80 | 1.80 | 1 | 1015.3 |
| 20260902190012 | 21 | 201 | 0.0 | 0.0 | 0.00 | 1.80 | 1.80 | 1 | 1015.3 |
| 20260902184509 | 20 | 150 | 0.0 | 0.0 | 0.00 | 1.80 | 1.80 | 1 | 1015.2 |
| 20260902183011 | 20 | 184 | 0.0 | 0.0 | 0.03 | 1.80 | 1.80 | 1 | 1015.2 |
| 20260902181508 | 20 | 69 | 0.0 | 0.0 | 0.03 | 1.80 | 1.80 | 1 | 1015.5 |
| 20260902180025 | 20 | 65 | 0.0 | 0.0 | 0.03 | 1.80 | 1.80 | 1 | 1015.8 |
| 20260902174521 | 20 | 64 | 0.0 | 1.6 | 0.03 | 1.80 | 1.80 | 1 | 1016.1 |
| 20260902173019 | 20 | 111 | 0.0 | 0.0 | 0.00 | 1.78 | 1.78 | 1 | 1016.3 |
| 20260902171514 | 20 | 103 | 0.0 | 0.0 | 0.00 | 1.78 | 1.78 | 1 | 1016.4 |
| 20260902170058 | 20 | 27 | 0.0 | 0.0 | 0.00 | 1.78 | 1.78 | 1 | 1016.5 |
| 20260902164603 | 20 | 38 | 0.0 | 0.0 | 0.03 | 1.78 | 1.78 | 1 | 1016.5 |
| 20260902163049 | 20 | 23 | 0.0 | 0.0 | 0.08 | 1.78 | 1.78 | 1 | 1016.5 |
| 20260902161546 | 20 | 215 | 0.0 | 0.0 | 0.10 | 1.78 | 1.78 | 1 | 1016.3 |
| 20260902160046 | 20 | 199 | 0.0 | 0.0 | 0.13 | 1.78 | 1.78 | 1 | 1016.0 |